EN

Hourly Weather Aba

Today, 12 June, Saturday

Time Temperature Precipitation Wind Pressure Humidity
00:00 +17°C° 0 mm 3 mps 752 mmHg 84%
01:00 +16°C° 0 mm 3 mps 752 mmHg 86%
02:00 +16°C° 0 mm 3 mps 752 mmHg 88%
03:00 +16°C° 0 mm 3 mps 752 mmHg 89%
04:00 +15°C° 0 mm 2 mps 752 mmHg 90%
05:00 +17°C° 0 mm 2 mps 752 mmHg 84%
06:00 +19°C° 0 mm 3 mps 753 mmHg 78%
07:00 +20°C° 0 mm 3 mps 753 mmHg 72%
08:00 +22°C° 0 mm 3 mps 753 mmHg 65%
09:00 +25°C° 0 mm 3 mps 753 mmHg 58%
10:00 +26°C° 0 mm 4 mps 753 mmHg 51%
11:00 +27°C° 0 mm 4 mps 753 mmHg 49%
12:00 +28°C° 0 mm 4 mps 752 mmHg 47%
13:00 +28°C° 0 mm 3 mps 752 mmHg 45%
14:00 +28°C° 0 mm 3 mps 752 mmHg 49%
15:00 +28°C° 0 mm 3 mps 751 mmHg 52%
16:00 +27°C° 0 mm 3 mps 751 mmHg 56%
17:00 +26°C° 0 mm 3 mps 751 mmHg 61%
18:00 +25°C° 0 mm 3 mps 751 mmHg 66%
19:00 +22°C° 0 mm 3 mps 751 mmHg 70%
20:00 +22°C° 0 mm 3 mps 751 mmHg 71%
21:00 +22°C° 0 mm 4 mps 751 mmHg 71%
22:00 +21°C° 0 mm 4 mps 751 mmHg 71%
23:00 +21°C° 0.1 mm 5 mps 752 mmHg 71%

Tomorrow, 13 June, Sunday

Time Temperature Precipitation Wind Pressure Humidity
00:00 +21°C° 0.1 mm 6 mps 752 mmHg 72%
01:00 +21°C° 0.1 mm 7 mps 752 mmHg 73%
02:00 +20°C° 0 mm 8 mps 752 mmHg 74%
03:00 +18°C° 0 mm 8 mps 752 mmHg 75%
04:00 +17°C° 0 mm 8 mps 752 mmHg 77%
05:00 +17°C° 0 mm 8 mps 753 mmHg 75%
06:00 +17°C° 0 mm 8 mps 754 mmHg 73%
07:00 +17°C° 0 mm 8 mps 754 mmHg 71%
08:00 +18°C° 0 mm 9 mps 755 mmHg 64%
09:00 +18°C° 0 mm 9 mps 755 mmHg 57%
10:00 +19°C° 0 mm 9 mps 755 mmHg 51%
11:00 +21°C° 0 mm 9 mps 755 mmHg 47%
12:00 +21°C° 0 mm 9 mps 755 mmHg 44%
13:00 +22°C° 0 mm 9 mps 755 mmHg 41%
14:00 +22°C° 0 mm 9 mps 755 mmHg 43%
15:00 +22°C° 0 mm 8 mps 755 mmHg 44%
16:00 +22°C° 0 mm 8 mps 755 mmHg 46%
17:00 +20°C° 0 mm 7 mps 755 mmHg 49%
18:00 +19°C° 0 mm 6 mps 756 mmHg 53%
19:00 +17°C° 0 mm 5 mps 756 mmHg 57%
20:00 +16°C° 0 mm 5 mps 756 mmHg 59%
21:00 +15°C° 0 mm 5 mps 757 mmHg 61%
22:00 +13°C° 0 mm 5 mps 757 mmHg 63%
23:00 +13°C° 0 mm 5 mps 757 mmHg 65%

Day after tomorrow, 14 June, Monday

Time Temperature Precipitation Wind Pressure Humidity
00:00 +12°C° 0 mm 4 mps 757 mmHg 68%
01:00 +11°C° 0 mm 4 mps 757 mmHg 70%
02:00 +10°C° 0 mm 4 mps 757 mmHg 73%
03:00 +10°C° 0 mm 4 mps 757 mmHg 77%
04:00 +9°C° 0 mm 3 mps 757 mmHg 80%
05:00 +11°C° 0 mm 3 mps 758 mmHg 75%
06:00 +12°C° 0 mm 3 mps 758 mmHg 70%
07:00 +14°C° 0 mm 4 mps 758 mmHg 65%
08:00 +16°C° 0 mm 3 mps 758 mmHg 60%
09:00 +18°C° 0 mm 3 mps 758 mmHg 54%
10:00 +19°C° 0 mm 2 mps 757 mmHg 48%
11:00 +20°C° 0 mm 2 mps 757 mmHg 46%
12:00 +21°C° 0 mm 2 mps 757 mmHg 44%
13:00 +23°C° 0 mm 2 mps 756 mmHg 42%
14:00 +23°C° 0 mm 2 mps 756 mmHg 42%
15:00 +23°C° 0 mm 2 mps 755 mmHg 41%
16:00 +24°C° 0 mm 2 mps 755 mmHg 41%
17:00 +21°C° 0 mm 2 mps 755 mmHg 48%
18:00 +20°C° 0 mm 2 mps 755 mmHg 54%
19:00 +19°C° 0 mm 2 mps 755 mmHg 61%
20:00 +18°C° 0 mm 2 mps 755 mmHg 62%
21:00 +17°C° 0 mm 2 mps 755 mmHg 62%
22:00 +16°C° 0 mm 2 mps 755 mmHg 63%
23:00 +15°C° 0 mm 2 mps 755 mmHg 66%

15 June, Tuesday

Time Temperature Precipitation Wind Pressure Humidity
00:00 +14°C° 0 mm 2 mps 756 mmHg 70%
01:00 +13°C° 0 mm 1 mps 756 mmHg 73%
02:00 +13°C° 0 mm 1 mps 756 mmHg 75%
03:00 +13°C° 0 mm 1 mps 756 mmHg 77%
04:00 +12°C° 0 mm 1 mps 756 mmHg 79%
05:00 +14°C° 0 mm 1 mps 756 mmHg 72%
06:00 +16°C° 0 mm 1 mps 756 mmHg 66%
07:00 +19°C° 0 mm 1 mps 757 mmHg 60%
08:00 +20°C° 0 mm 1 mps 757 mmHg 55%
09:00 +22°C° 0 mm 1 mps 756 mmHg 50%
10:00 +23°C° 0 mm 1 mps 756 mmHg 45%
11:00 +24°C° 0 mm 1 mps 756 mmHg 44%
12:00 +25°C° 0 mm 1 mps 756 mmHg 43%
13:00 +25°C° 0 mm 1 mps 756 mmHg 42%
14:00 +26°C° 0 mm 1 mps 756 mmHg 41%
15:00 +26°C° 0 mm 1 mps 755 mmHg 41%
16:00 +26°C° 0 mm 1 mps 755 mmHg 41%
17:00 +24°C° 0 mm 1 mps 755 mmHg 47%
18:00 +23°C° 0 mm 1 mps 755 mmHg 52%
19:00 +22°C° 0 mm 1 mps 755 mmHg 58%
20:00 +21°C° 0 mm 1 mps 755 mmHg 60%
21:00 +20°C° 0 mm 1 mps 755 mmHg 61%
22:00 +19°C° 0 mm 1 mps 755 mmHg 62%
23:00 +18°C° 0 mm 1 mps 755 mmHg 63%

16 June, Wednesday

Time Temperature Precipitation Wind Pressure Humidity
00:00 +18°C° 0 mm 1 mps 755 mmHg 64%
01:00 +18°C° 0 mm 1 mps 755 mmHg 64%
02:00 +16°C° 0 mm 1 mps 755 mmHg 66%
03:00 +16°C° 0 mm 1 mps 755 mmHg 67%
04:00 +16°C° 0 mm 1 mps 755 mmHg 68%
05:00 +18°C° 0 mm 1 mps 755 mmHg 66%
06:00 +20°C° 0 mm 1 mps 755 mmHg 64%
07:00 +21°C° 0 mm 1 mps 755 mmHg 61%
08:00 +21°C° 0 mm 0 mps 755 mmHg 57%
09:00 +22°C° 0 mm 0 mps 755 mmHg 52%
10:00 +24°C° 0 mm 0 mps 756 mmHg 48%
11:00 +25°C° 0 mm 0 mps 755 mmHg 45%
12:00 +25°C° 0 mm 0 mps 755 mmHg 43%
13:00 +26°C° 0 mm 0 mps 755 mmHg 40%
14:00 +28°C° 0 mm 1 mps 755 mmHg 40%
15:00 +28°C° 0 mm 1 mps 754 mmHg 40%
16:00 +28°C° 0 mm 1 mps 754 mmHg 40%
17:00 +27°C° 0 mm 2 mps 754 mmHg 47%
18:00 +25°C° 0 mm 2 mps 754 mmHg 54%
19:00 +24°C° 0 mm 2 mps 754 mmHg 61%
20:00 +23°C° 0 mm 2 mps 755 mmHg 62%
21:00 +21°C° 0 mm 1 mps 755 mmHg 63%
22:00 +20°C° 0 mm 1 mps 755 mmHg 63%
23:00 +20°C° 0 mm 1 mps 755 mmHg 66%

17 June, Thursday

Time Temperature Precipitation Wind Pressure Humidity
00:00 +19°C° 0 mm 1 mps 755 mmHg 68%
01:00 +16°C° 0 mm 0 mps 755 mmHg 70%
02:00 +16°C° 0 mm 0 mps 755 mmHg 72%
03:00 +16°C° 0 mm 0 mps 755 mmHg 74%
04:00 +15°C° 0 mm 0 mps 755 mmHg 76%
05:00 +19°C° 0 mm 1 mps 755 mmHg 72%
06:00 +21°C° 0 mm 1 mps 755 mmHg 68%
07:00 +23°C° 0 mm 1 mps 756 mmHg 64%
08:00 +24°C° 0 mm 2 mps 756 mmHg 60%
09:00 +25°C° 0 mm 2 mps 756 mmHg 55%
10:00 +27°C° 0 mm 2 mps 756 mmHg 51%
11:00 +28°C° 0 mm 2 mps 756 mmHg 47%
12:00 +28°C° 0 mm 2 mps 755 mmHg 44%
13:00 +29°C° 0 mm 2 mps 755 mmHg 41%
14:00 +29°C° 0 mm 2 mps 755 mmHg 40%
15:00 +29°C° 0 mm 2 mps 755 mmHg 39%
16:00 +30°C° 0 mm 2 mps 755 mmHg 39%
17:00 +28°C° 0 mm 2 mps 755 mmHg 45%
18:00 +27°C° 0 mm 1 mps 755 mmHg 51%
19:00 +25°C° 0 mm 1 mps 755 mmHg 57%
20:00 +24°C° 0 mm 1 mps 755 mmHg 58%
21:00 +23°C° 0 mm 1 mps 755 mmHg 60%
22:00 +21°C° 0 mm 1 mps 755 mmHg 62%
23:00 +21°C° 0 mm 1 mps 755 mmHg 64%
Show more